Wind_Speed
30 29 27 26 24 22 21 20 18 16 15 14 14 13 14 14 14 15 15 16 15 15 15 15 15 15 14 13 13 14 16 17 18 19 20 20 20 20 21 22 24 25 25 24 23 23 24 24 24 24 24 26 28 29 29 29 28 27 26 25 25 23 23 27 32 36 37 35 34 34 32 31 31 31 30 30 30 29 28 30 33 35 36 37 38
32 30 28 26 25 24 23 22 20 18 16 16 15 14 14 14 14 15 16 16 16 15 15 15 15 14 13 12 13 14 17 18 19 20 21 21 21 21 22 24 25 26 26 27 25 24 24 24 23 23 23 24 25 27 28 29 29 29 28 26 26 25 22 23 28 34 38 38 36 36 34 31 30 29 30 32 31 30 29 30 33 34 35 37 39
33 31 29 28 26 26 25 25 23 20 18 17 16 15 14 14 15 15 16 16 16 16 15 15 14 14 13 13 14 16 18 19 20 21 22 23 23 24 24 24 25 26 27 27 25 23 23 24 23 22 22 23 24 25 26 28 29 30 30 28 27 27 26 23 24 28 34 38 38 37 35 34 32 30 29 30 31 31 31 32 33 33 33 35 37
34 33 31 29 28 28 27 27 25 23 20 18 17 16 15 15 15 15 16 16 16 15 15 14 13 13 13 14 16 17 19 20 22 23 23 24 25 25 25 26 26 27 27 25 23 22 22 23 23 23 23 23 24 24 25 26 27 29 31 31 30 30 29 27 25 25 27 32 36 37 36 34 32 31 30 29 30 32 33 33 33 33 31 31 34
36 36 34 32 30 30 29 29 28 25 22 20 18 17 16 16 16 15 16 16 15 15 14 13 12 13 14 16 18 19 21 22 23 24 24 25 26 26 27 26 27 27 26 24 23 22 23 24 25 24 25 25 24 24 24 24 24 25 28 31 32 32 31 30 29 27 26 28 31 33 35 35 32 30 31 31 32 33 34 34 33 32 31 30 31
40 39 38 36 33 31 31 31 30 27 23 21 19 17 16 16 16 15 15 15 14 13 12 11 12 14 15 17 19 21 22 23 23 24 24 25 26 27 27 27 27 27 26 24 24 24 24 24 25 24 24 25 25 25 24 24 24 24 25 28 30 33 35 34 32 29 28 28 29 29 31 34 34 32 31 32 32 33 35 36 34 32 32 31 31
45 43 41 39 36 34 33 32 31 28 24 22 20 18 16 16 16 15 14 14 13 11 10 11 12 14 16 19 21 22 22 22 23 23 24 25 26 27 28 28 29 29 27 24 24 24 24 24 25 24 24 25 25 25 25 25 24 24 25 26 28 30 34 36 35 33 31 30 31 29 26 28 33 34 31 29 31 34 35 37 36 34 33 33 33
49 47 45 42 39 35 34 33 32 28 24 23 21 18 17 15 15 14 13 12 11 10 10 11 13 15 17 19 21 21 21 22 23 24 26 27 29 29 30 30 30 30 29 27 25 25 25 25 25 26 26 26 26 26 26 26 26 26 25 25 26 28 30 34 36 37 35 33 33 31 25 23 26 30 31 31 32 34 35 36 38 36 34 32 33
51 50 47 46 43 39 36 34 32 28 25 23 21 18 16 15 14 13 11 10 10 10 10 12 14 17 19 20 21 21 22 23 25 27 29 31 32 33 33 32 31 30 30 30 30 30 29 29 29 28 28 28 28 29 30 30 30 31 29 27 27 28 28 30 33 36 37 37 36 34 30 25 23 26 30 34 34 32 31 34 39 38 35 34 34
51 52 51 49 44 39 37 34 31 28 25 23 20 17 16 15 13 11 10 10 10 10 11 14 17 19 20 21 21 22 23 25 27 29 31 33 34 35 35 33 31 29 29 29 30 31 32 32 33 32 31 31 31 31 32 32 33 33 33 33 33 33 32 30 31 32 35 38 39 38 37 34 29 25 26 29 31 31 30 33 38 40 38 37 36
40 44 49 48 41 35 34 32 28 26 24 21 19 17 15 13 11 10 10 10 11 11 13 16 18 20 20 21 22 23 24 26 28 31 33 34 35 35 34 33 31 29 29 29 29 29 30 30 31 32 32 33 33 34 33 33 33 33 33 34 35 36 36 35 34 33 33 35 38 40 40 40 38 31 26 25 25 27 28 29 34 39 41 39 38
34 33 37 39 36 33 32 30 26 25 23 20 19 16 13 10 9 10 11 11 12 13 15 17 19 20 21 22 22 24 26 28 30 32 34 35 35 34 34 33 32 30 30 30 30 30 31 31 31 32 32 33 33 34 35 35 35 35 34 35 35 35 36 36 37 37 35 34 36 40 42 42 42 39 34 29 26 26 28 30 33 39 42 42 41
39 36 35 36 34 31 31 29 27 25 22 20 18 14 11 10 10 10 11 12 13 14 16 19 21 21 21 21 23 25 27 29 31 33 34 35 35 34 33 33 33 32 32 32 32 33 34 35 36 35 35 34 34 34 35 35 36 36 36 36 37 37 36 36 36 37 36 35 35 39 41 41 43 43 41 37 33 29 29 32 34 38 41 42 41
40 40 39 39 36 33 32 30 28 25 22 20 17 13 11 10 10 10 12 13 15 17 19 21 21 20 20 22 24 27 28 30 32 33 34 34 34 34 34 35 35 35 35 35 36 37 38 38 39 39 38 36 35 34 35 35 35 36 36 37 38 38 37 37 36 35 35 36 36 38 39 38 40 42 40 39 38 34 33 34 35 39 43 42 41
41 42 41 40 38 35 33 30 28 25 21 19 16 12 10 9 10 12 14 16 18 20 21 21 19 19 21 23 26 28 28 29 29 29 30 30 31 32 34 36 37 38 39 39 39 39 39 39 40 39 38 37 35 34 34 34 35 36 37 38 39 39 39 39 37 36 36 37 38 39 39 37 36 36 34 34 36 36 36 36 37 39 42 42 41
41 42 42 41 38 35 31 27 24 22 19 17 14 11 10 10 11 14 16 18 20 21 20 19 19 19 21 23 26 27 27 26 26 27 28 28 29 30 31 33 35 37 38 39 39 39 39 38 38 38 37 37 36 35 34 34 35 37 38 40 40 41 41 40 38 38 39 39 39 40 41 41 38 36 33 31 31 31 32 34 37 39 40 40 41
42 43 42 40 37 33 29 25 22 20 17 14 12 11 11 12 14 16 17 19 20 20 19 18 18 19 21 24 26 27 27 26 27 29 31 31 31 30 31 32 34 35 37 37 38 39 39 38 38 38 38 38 36 35 33 33 34 36 38 40 41 43 43 40 38 39 40 40 40 41 43 44 41 37 35 33 30 28 29 34 38 39 40 42 42
43 44 43 40 37 33 29 24 22 20 16 13 12 13 14 14 15 15 16 18 18 18 17 16 17 18 22 26 27 27 29 31 32 34 36 35 34 33 33 34 36 37 37 38 38 39 39 39 38 38 39 38 36 35 33 32 34 36 37 39 42 44 44 40 38 40 39 39 40 39 40 42 41 37 35 35 33 29 30 35 38 38 41 42 43
44 45 44 41 38 34 29 26 23 19 15 14 15 14 14 13 14 15 16 16 16 14 14 16 17 19 23 27 28 29 31 33 34 38 40 38 35 34 34 36 37 38 39 40 40 40 40 41 39 39 39 38 36 35 34 33 35 37 38 39 43 46 44 39 39 40 38 38 40 39 37 39 41 40 37 35 34 32 32 34 36 38 41 42 42
45 45 43 40 37 32 29 27 23 18 15 14 14 13 12 12 13 13 12 12 11 13 15 17 19 22 25 28 29 30 32 35 37 41 41 38 35 34 34 36 37 38 39 40 40 41 41 40 40 40 40 38 36 36 36 36 36 38 38 40 44 46 43 40 40 40 38 38 39 39 37 36 40 44 41 36 35 34 34 34 35 37 39 40 41
46 43 39 36 33 29 28 26 22 18 15 13 12 11 10 9 7 7 8 10 12 14 17 19 21 24 27 29 30 31 32 36 41 42 41 37 35 34 34 35 36 37 39 39 39 41 41 41 42 42 40 38 37 37 38 37 37 37 39 40 42 41 40 41 42 40 39 39 39 39 39 37 38 43 44 40 37 35 34 34 35 37 38 39 41
43 38 33 31 30 28 27 25 21 17 14 11 9 6 2 2 4 7 9 11 13 15 18 20 23 26 27 28 30 31 34 39 42 42 39 37 35 34 34 34 34 34 37 39 39 40 40 40 41 41 39 38 38 38 38 37 37 38 40 40 40 38 37 39 40 39 40 40 40 40 41 39 37 40 44 43 39 35 33 34 34 35 37 37 39
36 32 29 29 29 27 25 22 18 14 11 8 5 5 8 7 6 7 8 10 13 15 18 21 23 25 26 27 29 32 37 41 42 40 38 37 36 34 33 33 32 31 34 37 39 39 40 39 40 39 38 38 38 38 38 37 37 39 40 40 40 39 38 38 39 39 40 40 41 42 42 40 38 38 42 44 40 34 32 32 31 33 35 35 36
34 33 31 29 27 24 20 17 13 11 9 8 9 11 11 8 6 5 6 9 12 15 18 20 22 24 26 28 31 35 40 41 40 39 38 38 36 34 32 31 31 31 33 36 38 39 40 39 39 38 38 38 38 38 38 38 38 39 40 40 40 39 40 41 41 41 41 41 42 43 42 41 39 37 38 42 40 33 29 29 28 29 32 34 38
35 33 29 25 22 19 15 13 11 10 10 10 9 8 8 9 7 5 6 9 13 15 17 18 20 23 25 29 33 38 40 40 39 39 38 37 35 33 32 31 31 32 34 37 39 39 39 39 38 38 37 37 37 37 38 38 38 38 39 39 39 40 41 42 42 42 43 43 43 43 43 41 39 36 34 38 39 33 28 28 27 26 30 37 43
32 29 25 21 19 16 14 13 11 9 8 6 4 3 5 9 9 6 8 10 13 14 14 16 19 22 25 30 35 38 40 40 40 39 37 35 34 33 32 33 33 34 36 38 39 39 38 37 37 37 37 37 36 36 37 37 37 37 36 35 37 39 41 42 42 42 44 44 43 43 42 39 36 33 31 34 38 34 28 27 27 26 31 39 46
30 26 22 20 18 16 14 12 10 7 5 3 2 1 4 9 10 8 9 11 11 11 13 15 19 22 26 30 34 38 40 40 40 39 36 34 34 34 34 35 36 36 37 38 38 37 36 36 36 36 35 35 35 35 35 35 34 34 34 34 35 37 39 40 41 43 44 44 42 41 39 35 32 30 29 32 36 33 28 27 26 26 31 39 46
28 24 20 18 17 14 13 11 9 7 4 3 3 2 5 8 9 10 11 11 10 11 13 16 19 22 26 30 33 37 40 41 41 38 35 34 35 36 36 36 36 36 36 36 36 35 35 34 34 33 33 32 32 31 31 32 32 31 31 31 32 34 33 34 38 41 42 42 40 38 36 33 30 28 28 31 35 32 27 26 26 26 30 37 43
26 24 19 17 15 14 12 10 8 7 6 4 2 2 6 8 9 12 13 11 10 12 15 18 20 22 25 28 32 35 39 42 42 38 34 34 34 35 35 34 34 34 32 32 32 33 33 32 31 31 30 29 29 29 29 30 30 29 28 28 29 30 30 31 34 37 39 40 39 37 34 31 28 26 26 30 34 32 27 26 26 28 32 37 42
26 22 17 15 14 14 12 10 9 9 7 3 1 3 7 9 12 14 13 11 12 15 18 19 20 22 24 26 29 32 37 42 42 37 34 33 33 32 32 31 30 29 28 28 29 30 31 31 31 30 28 28 29 29 28 28 28 28 27 26 27 28 29 30 31 32 34 36 37 35 32 29 27 26 26 29 32 30 27 26 27 29 33 38 42
22 18 15 15 15 14 13 11 9 8 5 2 1 5 9 12 13 14 13 13 15 17 18 19 20 22 24 26 28 31 35 40 40 36 33 33 32 30 29 28 26 25 25 25 26 27 27 28 29 28 27 28 29 27 25 24 24 24 23 24 25 26 28 31 31 31 32 32 32 30 29 28 27 26 26 28 29 29 27 27 29 32 36 40 42
21 18 16 15 15 14 12 10 9 7 3 1 3 8 12 14 14 15 16 16 17 17 18 19 20 22 24 26 28 31 36 40 39 34 32 33 32 29 28 25 22 21 20 20 22 23 23 24 25 25 25 26 26 24 21 19 18 17 18 20 22 23 25 28 30 29 29 28 28 28 28 27 27 26 26 27 29 28 28 29 32 36 39 41 42
21 18 16 16 15 13 12 10 8 4 2 1 4 8 11 15 15 16 17 17 16 16 18 19 21 23 24 26 27 30 35 39 38 33 32 33 31 29 27 22 19 19 19 19 20 22 22 22 22 22 22 23 23 21 18 15 14 14 14 15 16 17 19 22 26 29 30 29 28 29 28 26 25 26 27 28 29 29 29 31 34 37 40 41 40
18 16 17 16 13 11 11 9 5 3 2 2 5 6 9 13 14 14 15 16 16 16 17 19 22 24 25 27 28 30 34 39 38 32 31 33 31 29 26 22 18 19 20 21 22 23 23 23 22 21 20 20 20 18 16 14 13 14 13 13 13 13 14 17 21 27 31 31 30 30 29 27 26 27 29 30 31 31 32 34 36 38 40 40 38
15 15 16 14 11 9 8 4 1 1 1 3 5 5 7 11 13 13 13 15 16 16 17 19 22 25 27 28 30 31 35 39 38 33 32 34 32 29 28 26 23 23 23 24 24 24 24 24 23 22 20 18 17 17 15 13 13 13 13 14 14 14 15 18 21 24 27 29 30 30 29 28 28 30 32 33 33 34 35 36 37 39 39 39 37
14 13 12 10 8 6 4 1 1 0 1 4 5 5 8 11 13 13 13 15 16 17 19 20 22 25 28 30 31 32 35 40 39 35 34 35 33 31 31 30 29 29 28 27 26 25 25 24 23 22 20 18 16 15 15 13 12 12 11 12 13 12 13 16 19 22 25 27 29 30 29 28 29 33 34 34 34 34 34 35 37 38 37 36 35
12 11 10 9 6 4 2 1 1 3 4 5 6 7 8 11 12 13 14 15 16 18 19 20 22 26 30 31 32 32 35 39 40 36 35 36 35 33 32 31 30 30 30 29 28 27 26 25 24 23 22 19 16 15 14 13 12 12 11 11 11 10 8 9 11 15 20 24 27 28 29 29 32 35 35 32 32 32 33 35 37 37 35 33 32
11 11 10 7 4 3 3 2 2 4 5 5 6 6 7 9 11 13 14 15 15 18 20 20 22 27 31 32 32 33 35 40 41 39 38 38 36 34 32 31 30 30 30 30 29 28 27 26 25 24 22 20 17 15 14 12 12 12 11 11 10 8 6 7 9 11 16 22 25 26 27 30 33 34 32 30 30 31 34 36 36 35 32 31 31
11 9 6 4 4 4 3 2 3 4 4 5 4 3 5 7 9 11 14 15 15 17 20 22 23 26 30 32 32 32 35 40 44 43 40 39 37 34 33 32 31 30 30 30 29 28 27 26 25 24 22 19 17 15 13 12 11 10 9 8 7 6 6 8 11 14 17 21 24 25 28 31 32 31 30 29 30 32 35 35 33 32 32 33 34
7 5 4 5 5 5 4 3 6 5 4 3 1 2 4 6 7 9 12 15 15 16 19 22 23 25 29 31 31 31 34 39 43 43 40 38 37 35 33 32 31 30 29 29 29 28 27 26 25 23 21 19 17 15 13 11 10 8 6 5 5 5 6 9 13 17 21 24 26 28 29 30 30 29 29 29 31 33 34 33 32 31 33 35 37
7 6 6 5 6 6 6 6 7 5 3 2 1 1 3 5 6 7 9 11 13 15 19 21 22 24 28 29 29 29 31 36 41 42 40 38 37 35 33 32 31 29 28 28 28 27 26 25 24 22 21 19 17 15 13 10 8 6 4 3 2 4 6 10 15 19 22 24 26 27 28 28 28 29 30 30 31 33 32 31 32 34 35 37 39
11 10 8 7 7 7 7 6 5 4 4 3 1 2 3 3 6 7 8 9 10 14 18 20 20 21 25 27 28 28 29 33 38 41 41 38 36 35 33 31 30 29 28 27 26 25 24 23 22 21 20 19 17 15 13 10 7 5 2 1 1 4 7 11 15 18 20 22 23 24 26 27 28 29 30 31 32 32 32 33 35 37 39 40 42
15 13 11 9 8 8 8 6 6 5 4 3 3 4 4 5 6 8 10 11 12 15 18 19 18 19 22 24 26 28 29 32 35 39 41 39 36 35 34 31 30 29 28 26 25 24 22 21 21 20 19 18 16 14 13 10 7 4 2 2 4 5 8 11 13 15 17 19 21 23 24 26 28 28 30 31 32 34 35 37 38 40 41 42 42
14 13 12 10 9 9 7 6 6 5 5 5 5 6 6 7 8 10 12 13 13 16 18 18 18 18 20 22 24 26 28 30 32 35 39 40 37 34 34 32 30 29 29 28 26 24 22 21 20 19 18 18 16 14 12 10 7 4 3 4 5 8 10 12 14 15 17 19 21 24 25 27 28 29 31 32 33 35 37 38 39 41 41 41 41
8 8 8 8 8 7 7 6 6 5 4 4 5 6 7 8 9 11 13 13 14 16 17 17 18 18 18 20 23 24 26 28 29 31 36 39 38 35 33 32 31 30 29 28 27 25 23 21 21 20 19 18 17 15 13 10 8 6 5 6 7 11 13 15 16 18 19 20 23 25 27 29 30 31 32 33 33 36 38 40 41 41 41 40 38
8 7 6 6 6 5 5 6 5 4 2 2 3 4 6 7 9 10 12 13 14 15 16 17 17 18 17 19 22 24 25 26 27 28 31 35 38 37 33 32 31 30 29 28 27 26 24 22 21 20 19 18 17 16 14 11 9 8 8 8 10 13 15 17 19 20 22 24 26 28 30 31 32 33 34 35 37 39 41 41 40 39 38 36 35
7 6 5 4 3 3 3 4 4 3 1 1 2 4 5 7 9 10 11 11 12 13 14 15 16 16 16 17 20 23 25 25 26 26 26 30 34 37 35 32 30 30 30 29 28 27 25 22 21 19 19 19 18 17 15 13 12 11 11 11 12 14 16 17 19 21 23 25 27 29 31 33 34 35 35 37 39 40 40 38 37 36 34 33 32
2 2 2 1 1 2 3 3 3 2 1 1 3 4 5 8 10 12 12 13 13 13 13 13 14 14 15 15 18 21 23 24 24 24 24 25 29 33 35 34 30 29 29 30 30 29 27 24 21 19 19 19 19 18 17 16 15 14 14 13 12 13 14 16 18 20 22 24 26 29 31 33 35 35 36 37 38 38 38 36 35 33 32 31 30
4 4 4 3 2 2 1 0 2 2 2 2 4 5 7 9 11 13 13 14 14 14 13 12 12 13 13 13 15 18 21 22 23 23 23 23 24 27 32 33 32 30 29 29 29 29 28 26 23 20 18 18 18 18 18 18 17 16 15 14 13 13 14 16 18 20 22 24 26 29 31 34 36 37 37 38 37 37 35 35 33 32 30 30 29
7 7 6 6 6 6 6 4 2 1 2 3 4 6 8 9 10 12 13 13 14 14 13 12 11 11 12 12 13 15 17 20 21 22 22 22 22 23 26 29 31 31 30 30 30 29 28 27 25 23 20 19 18 18 18 18 17 17 15 14 14 14 15 17 19 20 21 24 27 30 33 35 37 37 36 35 34 33 32 32 31 30 30 30 30
5 6 5 5 6 6 6 6 6 5 6 6 7 7 8 9 9 10 11 12 12 13 13 12 11 10 10 10 11 12 13 16 18 19 21 21 21 21 22 24 27 29 29 29 31 32 32 30 27 25 23 21 20 18 18 17 16 15 15 14 13 14 16 18 19 20 22 25 28 31 33 34 35 35 34 33 32 31 31 30 29 29 29 30 30
Wind_Direction
230 229 228 228 230 229 226 224 223 224 225 230 236 240 243 245 246 247 248 253 258 262 269 278 283 285 287 295 309 318 317 315 315 314 314 313 311 309 307 306 306 306 305 303 297 290 285 281 279 279 274 269 264 260 260 257 256 256 257 261 264 268 278 283 281 279 279 277 276 275 274 273 272 270 270 269 267 263 259 257 257 255 253 253 253
232 230 227 228 231 231 226 224 224 225 226 229 233 236 240 242 244 246 250 255 259 264 273 279 282 285 293 306 312 312 309 308 309 308 308 308 305 303 301 299 300 301 301 301 298 292 287 281 277 277 277 275 269 264 260 257 256 254 254 258 262 262 266 278 283 280 278 276 275 275 276 276 275 274 270 269 270 268 261 256 256 256 255 253 251
234 231 227 227 232 231 227 225 225 225 226 230 232 234 237 240 242 247 251 255 260 267 274 279 283 291 302 309 305 301 301 300 300 302 302 302 301 299 298 297 297 298 298 299 298 295 290 284 279 277 277 275 272 268 264 259 255 255 254 255 260 261 260 265 278 284 281 278 277 277 277 277 276 276 275 271 271 270 265 259 256 256 255 254 250
235 233 228 228 231 230 226 224 225 225 227 230 233 234 236 239 242 245 249 253 260 267 274 279 288 300 306 303 300 297 296 295 295 296 296 296 296 296 296 296 296 297 297 297 298 299 297 291 285 283 283 279 273 270 270 266 259 255 254 254 256 260 261 262 269 279 284 284 282 278 276 277 277 276 276 275 273 270 267 263 259 256 254 253 252
237 235 230 227 228 228 225 225 226 226 227 230 232 234 236 239 241 244 247 253 261 268 274 285 297 304 303 299 298 296 294 294 293 294 294 293 293 293 293 293 293 294 295 296 296 295 295 293 289 288 289 286 279 273 274 275 270 262 257 254 254 256 259 262 264 267 274 283 285 282 277 275 274 274 273 273 273 271 268 265 260 255 253 252 252
240 238 233 228 227 227 225 225 226 226 227 230 232 233 235 239 241 243 248 254 261 268 278 294 301 301 300 299 297 295 295 296 296 296 296 294 293 293 291 290 289 288 289 291 291 290 289 288 289 289 289 289 287 282 278 279 279 274 266 258 254 253 254 257 260 262 265 271 279 286 283 275 271 270 270 271 272 272 269 265 259 254 250 248 247
241 238 234 229 227 227 226 226 226 226 227 229 231 233 235 239 241 244 249 253 259 269 283 294 298 299 300 297 295 296 298 300 302 303 303 302 300 298 295 292 288 286 286 287 287 288 287 287 287 287 287 288 290 289 286 284 283 282 279 271 263 257 254 254 256 259 261 263 268 278 287 283 274 267 266 270 270 267 265 261 256 251 247 245 244
240 237 235 231 229 227 226 227 226 224 226 228 230 231 233 237 240 242 247 252 260 272 281 291 298 299 297 294 294 298 302 304 306 307 308 307 305 302 300 296 291 286 284 283 282 282 282 283 284 283 283 283 284 285 284 284 285 283 282 282 277 271 264 259 257 257 259 260 262 267 278 286 284 273 265 263 262 261 261 257 253 252 250 247 246
239 236 235 233 230 227 225 225 224 223 224 226 227 229 232 235 237 239 246 254 262 271 281 292 298 296 295 296 298 302 303 305 306 307 307 306 305 304 302 300 294 288 283 279 278 277 276 277 279 279 280 279 278 278 276 275 276 275 275 277 278 278 274 268 264 261 261 260 258 260 264 270 280 282 271 262 260 263 263 255 251 253 253 249 247
236 233 231 229 226 225 225 223 222 222 224 225 225 227 229 231 234 238 247 257 263 273 283 291 296 296 297 298 298 299 300 302 303 304 304 305 305 304 302 300 296 291 286 283 279 277 276 275 275 275 276 277 276 275 275 274 273 272 270 269 271 273 275 273 269 266 265 264 259 257 259 260 264 275 280 274 268 264 262 256 253 252 249 245 245
229 226 225 223 222 226 228 226 224 225 226 224 223 225 227 230 234 242 253 260 266 275 284 291 296 297 295 293 293 294 296 298 301 302 303 304 304 303 300 298 295 291 289 287 285 283 281 279 278 277 276 277 277 277 278 278 278 276 273 270 268 268 269 270 269 267 266 266 262 259 259 258 256 260 274 282 278 270 267 263 257 252 248 246 245
238 230 225 223 224 226 227 227 229 229 227 225 224 225 226 229 237 248 257 263 270 278 283 289 292 291 289 288 290 291 294 297 300 302 303 304 303 301 297 295 294 291 290 289 287 287 286 284 284 282 279 278 278 277 278 278 278 278 277 275 272 269 267 266 265 265 264 264 264 261 260 260 257 253 258 268 274 277 274 266 256 252 251 250 248
248 241 234 232 231 227 223 226 229 226 225 227 226 223 224 231 241 250 258 266 271 274 276 281 286 287 287 288 290 293 297 300 301 301 302 302 301 298 294 291 290 288 287 287 286 286 286 287 287 285 284 282 280 279 278 277 276 276 275 276 275 273 271 267 264 262 261 260 263 262 260 262 261 256 254 260 266 271 274 270 264 257 254 252 251
244 237 234 233 231 226 223 223 221 218 222 225 223 222 226 233 242 252 260 265 266 267 272 280 286 287 287 290 295 299 302 302 303 303 302 301 298 294 290 287 285 283 282 282 282 283 283 285 285 285 285 284 283 283 281 280 279 278 276 275 274 274 273 272 268 263 257 252 255 258 258 260 264 262 259 261 263 265 268 271 270 261 252 249 249
241 231 228 227 225 224 223 219 214 213 216 216 217 222 227 234 246 252 256 260 262 268 277 283 285 286 291 299 303 304 305 307 309 310 309 307 302 295 290 286 283 281 280 280 280 280 281 281 282 283 282 282 283 283 283 284 283 281 279 276 274 273 271 271 270 268 262 253 249 251 252 252 256 260 261 261 262 264 266 269 270 263 252 246 248
236 225 221 221 222 222 219 213 211 209 206 208 216 223 226 232 240 247 253 261 267 274 280 282 286 293 301 307 306 305 308 313 317 320 319 316 309 302 296 291 287 284 282 280 280 279 279 279 279 279 279 280 281 282 283 285 283 281 279 276 275 273 270 270 270 270 268 262 252 247 247 247 247 250 252 254 255 259 263 265 264 261 256 252 252
232 224 219 216 213 210 204 203 205 202 200 207 216 220 224 230 238 247 257 265 271 277 281 286 296 304 310 312 310 311 315 320 323 324 324 321 315 308 302 297 293 290 287 284 281 278 277 276 276 277 278 278 280 282 283 283 282 280 277 276 275 273 270 271 272 271 271 270 262 252 246 245 246 247 249 248 247 249 255 256 256 256 255 253 252
229 222 215 207 201 197 196 196 197 194 195 205 212 219 229 236 243 253 262 269 276 282 289 301 308 309 312 314 314 316 319 322 324 324 324 322 317 309 303 299 294 292 290 288 285 281 278 275 274 275 276 277 279 281 281 280 278 276 275 275 274 272 271 271 273 272 272 272 268 260 249 245 245 247 249 248 244 241 245 248 250 252 252 251 252
222 215 207 198 193 192 190 188 188 188 191 203 213 223 233 240 251 261 268 276 285 295 307 314 309 303 307 314 316 317 318 319 321 321 321 320 316 309 303 298 293 291 289 287 286 283 280 277 274 272 272 274 276 278 277 275 272 271 270 271 270 270 271 272 271 271 272 272 271 266 256 245 241 243 246 247 244 240 241 243 245 248 250 251 250
215 207 198 191 189 188 183 181 184 187 194 206 215 226 237 246 258 268 278 291 306 317 318 311 301 300 308 314 315 316 317 316 317 319 319 318 313 307 301 295 292 290 288 286 286 285 283 280 276 273 272 274 275 275 273 271 270 269 268 266 266 268 270 271 270 270 270 271 271 270 262 249 239 237 238 242 242 240 240 240 240 243 248 250 249
203 196 188 184 184 182 177 177 178 178 185 198 209 222 238 250 267 290 315 324 324 320 311 302 300 304 311 314 315 315 315 314 316 318 318 316 312 305 299 294 291 289 287 286 285 284 284 282 280 278 277 276 274 273 272 271 270 269 267 265 266 268 269 267 266 267 268 267 268 268 264 255 243 235 234 237 239 238 238 238 238 239 243 246 247
190 185 179 176 174 172 170 169 168 166 172 185 195 209 248 329 339 336 333 327 321 315 307 303 305 309 312 314 315 313 313 315 318 319 319 316 311 305 299 294 291 290 289 288 287 286 286 285 284 282 280 278 276 274 274 273 271 269 267 266 266 266 265 264 263 264 264 264 264 265 264 259 250 238 232 232 234 235 236 236 237 239 242 244 248
173 169 165 164 163 164 163 160 157 157 160 158 129 68 42 25 353 333 327 323 321 315 310 308 308 310 313 315 314 313 315 319 322 322 321 317 313 308 301 297 295 294 292 291 291 292 291 288 286 284 281 279 278 276 275 273 271 269 267 266 265 263 260 259 259 259 260 260 260 261 261 260 254 243 233 229 230 233 236 236 238 241 243 245 248
155 153 152 154 156 157 155 152 149 143 126 97 73 58 41 20 350 332 325 322 319 316 312 311 311 313 315 315 315 317 321 324 325 324 322 319 315 311 306 303 301 299 295 294 294 295 293 291 289 286 284 282 280 277 275 273 270 269 267 265 264 260 255 253 253 254 255 256 257 258 258 258 255 248 236 228 227 232 238 238 239 242 244 245 246
148 148 148 150 151 149 144 138 133 123 104 80 67 60 36 11 354 327 307 310 315 316 314 312 314 316 317 317 320 324 328 329 329 327 325 321 317 313 310 308 307 304 300 298 298 297 295 293 291 288 285 283 280 278 275 272 270 268 266 265 263 257 252 249 248 249 251 252 253 255 256 256 254 251 242 231 228 231 237 237 238 243 247 245 242
144 144 146 145 143 139 133 130 128 120 108 89 78 66 20 10 4 338 308 307 315 319 317 318 320 321 320 322 327 331 333 334 333 331 328 324 320 317 315 313 311 308 305 302 301 299 296 294 292 289 287 284 281 279 277 274 272 269 266 264 260 255 250 246 244 244 246 248 250 252 253 253 253 253 247 236 229 228 232 235 236 242 248 245 239
140 139 137 135 135 133 131 135 136 123 112 113 155 253 356 12 14 354 324 315 319 327 328 328 328 326 326 329 332 336 338 339 338 335 331 327 324 321 319 316 313 311 308 305 303 301 299 296 293 291 289 286 284 282 280 278 275 271 268 264 259 254 249 244 241 241 243 246 248 250 252 252 252 252 248 237 229 226 228 233 236 241 246 242 235
137 132 127 127 135 138 134 134 135 132 138 166 201 270 348 9 8 349 332 325 329 339 343 340 335 331 330 332 336 340 343 344 342 338 333 329 327 323 319 316 313 310 308 306 305 302 299 298 296 294 293 290 288 286 283 280 277 274 270 266 259 255 250 243 239 239 241 244 247 249 250 249 247 248 245 235 227 224 227 233 236 241 245 240 231
139 134 129 125 130 136 136 134 140 155 169 180 213 321 359 7 357 344 338 336 343 353 353 348 342 336 334 335 337 340 344 345 344 339 334 331 327 321 317 315 313 311 309 308 306 303 301 302 301 299 296 294 293 292 289 286 282 276 270 264 258 254 249 242 238 236 238 240 243 244 244 242 241 242 241 232 226 225 228 232 237 241 241 236 230
140 139 132 115 115 131 145 152 161 167 171 186 270 351 12 6 353 346 346 349 358 3 358 351 345 340 337 337 339 341 344 345 344 339 335 332 328 322 319 318 315 314 313 311 307 305 305 306 305 303 301 299 300 299 295 290 283 276 269 263 257 252 247 242 238 237 236 237 239 238 236 235 236 236 233 229 226 225 227 230 234 238 236 230 225
137 137 128 115 122 140 153 161 163 162 171 218 355 27 22 10 359 358 3 8 12 9 -0 350 346 343 340 339 340 343 347 347 344 341 338 336 332 328 326 324 322 320 318 314 310 309 310 310 308 305 304 303 302 301 298 292 284 276 271 266 259 252 245 241 238 235 233 232 231 230 229 230 232 230 225 224 224 224 226 229 231 232 231 227 222
134 135 128 127 139 149 152 153 152 153 177 264 43 39 30 25 23 21 22 23 19 12 3 354 349 348 346 344 342 345 349 349 346 344 343 341 338 336 334 331 330 329 325 320 318 317 318 318 315 310 307 305 304 303 301 297 289 278 270 264 258 249 240 235 233 230 226 222 221 224 228 230 229 224 219 219 222 223 225 226 225 224 221 218 217
134 137 137 140 146 145 145 150 153 164 211 10 52 43 32 31 30 27 26 23 17 9 3 358 356 355 353 351 348 348 350 351 349 347 348 347 345 344 342 340 340 344 344 339 334 331 330 330 327 320 312 308 309 308 305 301 293 279 268 262 258 251 241 233 227 224 222 221 221 223 228 231 226 219 217 220 223 225 224 221 219 217 213 210 209
134 140 144 145 140 134 143 155 164 195 229 48 51 37 27 27 27 25 23 17 11 6 0 357 360 1 359 356 355 353 353 353 352 352 353 353 352 350 350 350 352 357 359 355 348 343 340 338 336 331 321 315 315 314 311 306 297 285 275 270 264 255 247 237 228 221 220 223 225 226 229 232 224 215 216 221 223 222 219 216 214 211 208 205 204
135 140 145 146 138 132 141 151 160 234 207 66 47 24 22 25 23 21 19 13 7 4 357 354 359 4 2 359 359 359 356 355 356 357 358 358 358 358 359 1 2 3 3 1 357 351 346 343 341 339 331 324 321 320 316 312 307 297 288 282 272 260 248 241 235 229 224 224 225 225 227 228 222 217 218 220 219 217 213 209 207 206 203 202 200
136 140 149 155 151 139 128 90 24 206 106 73 54 40 37 31 20 16 17 14 9 4 357 353 357 4 4 2 1 2 360 358 359 3 4 3 4 5 5 5 4 3 3 2 359 356 352 347 345 344 340 334 329 325 321 319 318 311 301 294 286 270 249 235 231 228 223 220 220 220 219 218 218 219 219 217 213 212 210 205 202 200 199 197 196
143 151 158 160 151 124 90 68 98 121 107 84 69 57 44 32 23 19 15 12 10 6 360 355 357 3 6 4 3 3 2 0 3 7 8 8 9 10 9 7 4 2 3 2 360 357 354 350 348 348 346 342 337 331 327 324 324 320 314 310 302 285 259 232 221 216 210 206 208 210 210 211 215 217 217 213 209 206 202 199 195 192 191 191 189
155 163 163 156 130 95 90 95 114 124 115 95 81 64 37 27 27 23 17 12 9 6 4 2 4 5 6 5 4 4 2 2 6 11 12 12 12 11 10 9 6 3 3 3 360 357 354 352 351 351 348 345 342 337 332 330 328 325 320 316 306 290 266 237 219 207 196 192 194 201 207 212 213 214 213 211 208 202 195 191 189 185 182 181 179
154 158 151 126 94 85 88 118 156 145 122 98 84 52 26 27 27 21 17 14 7 3 6 10 11 10 7 6 5 5 4 5 9 12 13 13 13 11 11 10 8 5 4 3 1 359 356 354 353 352 351 349 347 342 338 335 333 329 323 315 300 278 252 226 213 203 195 191 193 200 208 210 208 207 207 207 203 196 189 185 184 181 176 172 170
136 124 98 87 82 74 81 142 163 153 126 106 77 0 22 31 20 12 15 13 4 1 7 12 14 13 10 8 7 7 7 9 11 13 14 14 14 12 12 12 10 8 5 4 2 1 359 357 355 354 353 352 351 348 345 341 338 333 324 312 289 260 236 219 209 203 198 196 197 200 204 205 202 199 199 198 194 189 183 178 175 174 171 168 166
100 94 89 89 89 91 107 137 149 149 149 156 150 20 38 30 10 3 8 6 360 1 8 12 15 13 11 12 12 11 10 12 14 14 15 16 15 14 14 14 13 11 8 5 4 2 1 360 358 357 357 357 356 354 352 348 345 341 332 317 280 232 213 205 202 200 197 197 197 196 194 195 194 191 187 184 180 178 175 172 169 167 165 163 162
93 91 91 90 99 117 132 140 143 154 173 172 110 51 39 13 358 -0 6 6 0 359 4 11 14 11 10 15 19 17 16 16 17 16 17 18 18 17 16 17 17 15 11 8 6 4 3 3 2 1 1 2 2 0 359 358 357 358 2 35 165 194 193 190 191 194 194 192 192 190 185 183 182 179 175 172 170 168 166 164 163 161 159 157 156
99 100 101 106 120 137 148 151 151 152 143 105 64 49 38 21 10 10 11 9 3 357 358 5 11 9 9 17 23 23 21 19 18 18 18 19 19 19 19 19 20 19 17 14 10 8 7 8 7 6 5 6 7 7 7 8 10 19 55 109 131 155 169 175 179 185 186 183 180 179 176 173 171 169 166 164 163 161 159 158 157 155 154 153 153
112 110 110 116 125 136 149 157 153 136 105 74 59 53 44 31 22 17 11 6 1 356 355 360 6 7 10 16 22 24 23 21 19 19 19 20 21 21 22 22 22 21 21 19 16 14 13 14 14 13 13 13 13 14 15 18 23 39 77 117 129 137 150 162 169 174 178 177 172 168 166 165 165 163 160 159 159 157 155 154 153 153 153 153 154
133 125 120 124 129 138 153 158 147 127 101 69 53 50 43 32 24 18 9 2 359 356 355 357 2 5 8 13 18 23 25 22 19 18 19 21 22 22 23 25 25 24 23 23 21 19 19 20 21 21 22 22 20 20 23 30 39 59 91 119 130 133 141 151 159 164 169 170 166 161 159 159 158 156 154 154 155 154 153 152 152 151 150 150 149
140 140 140 141 141 146 160 167 164 159 136 51 39 42 39 30 23 16 9 2 357 355 355 357 -0 3 6 9 15 21 24 23 20 18 18 21 24 24 24 25 26 26 26 26 26 25 24 24 25 27 29 30 30 29 32 39 50 68 91 113 125 129 134 142 149 153 157 159 158 155 153 151 150 149 149 151 151 150 149 148 147 145 144 142 141
129 137 146 152 157 165 172 178 188 201 214 342 9 19 25 20 17 15 12 5 358 354 355 358 -0 3 5 7 12 19 24 24 22 20 18 19 23 26 27 26 28 30 31 31 31 31 30 28 29 32 35 37 39 40 43 50 58 69 84 100 115 124 130 137 142 146 148 149 150 149 148 146 146 147 149 149 148 145 143 142 140 139 138 138 138
80 123 149 168 200 202 192 197 215 225 235 335 358 7 12 9 9 11 10 7 3 358 357 358 -0 3 6 7 10 17 24 26 25 24 22 20 22 27 29 29 30 32 35 34 34 34 35 36 36 37 40 45 47 50 54 59 64 71 79 88 100 114 125 133 138 141 144 146 147 147 147 145 145 145 144 143 141 139 137 136 135 135 136 137 140
48 63 73 66 55 59 73 259 249 245 265 333 356 3 3 1 3 6 8 8 8 5 1 359 359 1 4 7 9 13 22 28 29 29 27 23 21 25 30 32 32 32 32 32 32 33 36 40 42 44 47 52 55 57 61 64 68 75 82 90 97 106 118 127 132 137 141 144 145 146 144 142 140 138 137 136 136 135 134 134 134 137 139 141 143
57 54 54 51 48 49 48 44 41 36 22 11 7 5 2 1 3 6 8 9 10 10 7 4 0 357 358 4 7 10 17 25 29 31 31 28 23 23 28 33 35 35 34 34 35 37 38 40 43 47 51 56 60 63 65 66 70 76 86 97 106 111 116 122 127 133 138 140 140 139 137 135 133 133 134 135 135 133 133 135 137 139 140 140 141
44 39 38 41 45 47 47 47 48 47 41 34 25 16 11 8 6 7 6 6 9 12 12 9 4 356 351 355 3 7 11 18 25 30 32 32 28 23 23 29 36 40 41 42 43 44 44 43 44 47 51 56 60 66 70 73 76 79 85 95 106 115 122 126 128 130 133 134 133 132 130 128 128 130 133 135 135 134 133 134 135 135 135 136 138
Height
1498 1500 1501 1503 1504 1506 1507 1509 1510 1511 1512 1513 1514 1514 1515 1516 1517 1518 1519 1519 1520 1520 1521 1520 1520 1520 1519 1518 1517 1516 1516 1515 1515 1514 1513 1512 1512 1511 1510 1510 1509 1508 1507 1506 1506 1505 1504 1503 1503 1503 1503 1502 1503 1504 1504 1505 1506 1506 1507 1507 1507 1508 1508 1507 1506 1503 1502 1503 1504 1505 1506 1507 1507 1508 1508 1508 1509 1510 1511 1512 1513 1514 1515 1516 1517
1495 1497 1499 1500 1501 1503 1505 1507 1508 1509 1510 1511 1512 1512 1513 1514 1515 1516 1517 1518 1518 1518 1519 1518 1518 1517 1517 1516 1515 1514 1514 1513 1512 1512 1511 1510 1510 1509 1508 1507 1506 1505 1504 1504 1503 1502 1501 1501 1500 1500 1500 1499 1499 1500 1500 1501 1502 1502 1503 1503 1503 1504 1505 1504 1503 1501 1499 1498 1500 1501 1502 1503 1503 1504 1505 1505 1505 1506 1507 1508 1509 1510 1511 1512 1512
1493 1494 1496 1497 1499 1500 1502 1504 1505 1506 1507 1508 1509 1510 1511 1512 1513 1514 1515 1516 1516 1516 1516 1516 1516 1515 1514 1513 1513 1512 1512 1511 1510 1510 1509 1508 1507 1507 1506 1505 1504 1503 1502 1501 1500 1499 1499 1498 1497 1497 1497 1496 1495 1496 1496 1497 1498 1498 1498 1499 1499 1499 1501 1501 1500 1499 1496 1495 1495 1497 1498 1499 1499 1500 1501 1501 1501 1502 1503 1504 1505 1506 1507 1507 1508
1491 1492 1493 1494 1495 1497 1499 1501 1503 1504 1505 1506 1507 1508 1509 1510 1511 1512 1513 1514 1514 1514 1514 1514 1514 1513 1512 1512 1511 1511 1510 1509 1508 1508 1507 1506 1505 1504 1503 1502 1501 1500 1499 1498 1497 1497 1496 1495 1494 1494 1494 1493 1492 1492 1492 1493 1493 1494 1494 1495 1495 1495 1496 1497 1496 1496 1494 1492 1491 1493 1494 1495 1496 1496 1497 1497 1497 1497 1498 1499 1500 1502 1503 1503 1504
1489 1490 1490 1491 1492 1493 1496 1498 1499 1500 1502 1503 1504 1506 1507 1508 1509 1510 1511 1512 1512 1513 1512 1512 1511 1511 1511 1510 1509 1509 1508 1507 1506 1506 1505 1504 1503 1501 1500 1499 1498 1497 1496 1495 1495 1494 1494 1493 1492 1492 1491 1490 1490 1489 1489 1489 1489 1490 1490 1490 1491 1491 1491 1492 1492 1492 1492 1490 1488 1489 1490 1491 1492 1493 1493 1493 1493 1494 1494 1495 1496 1498 1499 1500 1500
1488 1487 1487 1487 1488 1490 1491 1494 1495 1497 1499 1501 1502 1503 1505 1506 1507 1508 1509 1510 1510 1511 1510 1510 1509 1509 1509 1508 1507 1507 1506 1505 1504 1503 1503 1501 1500 1499 1498 1496 1495 1494 1493 1493 1492 1491 1491 1490 1489 1489 1489 1488 1487 1487 1486 1486 1486 1486 1486 1486 1487 1487 1487 1487 1488 1488 1488 1487 1486 1485 1486 1487 1488 1489 1489 1490 1490 1490 1490 1491 1492 1494 1495 1495 1496
1485 1484 1484 1484 1485 1486 1487 1489 1491 1494 1496 1498 1500 1501 1502 1504 1505 1506 1507 1508 1508 1509 1508 1508 1508 1507 1507 1506 1505 1504 1504 1503 1502 1501 1500 1499 1498 1496 1495 1494 1492 1491 1490 1489 1489 1488 1487 1487 1486 1486 1486 1485 1485 1484 1484 1483 1483 1483 1482 1482 1483 1483 1483 1483 1484 1484 1484 1484 1483 1483 1483 1484 1484 1484 1485 1487 1487 1487 1487 1488 1488 1489 1490 1491 1492
1479 1480 1481 1481 1482 1482 1484 1486 1488 1490 1493 1495 1497 1499 1500 1501 1502 1504 1505 1506 1506 1506 1506 1506 1506 1505 1505 1504 1503 1502 1501 1500 1499 1498 1497 1496 1495 1493 1492 1490 1489 1487 1486 1485 1485 1485 1484 1484 1483 1483 1483 1483 1482 1482 1482 1481 1480 1480 1479 1479 1479 1479 1479 1480 1480 1480 1481 1481 1480 1480 1481 1481 1481 1481 1482 1483 1483 1483 1485 1485 1484 1485 1487 1488 1489
1474 1476 1477 1477 1478 1479 1480 1482 1485 1488 1490 1492 1494 1496 1497 1499 1500 1501 1503 1503 1504 1504 1504 1504 1503 1503 1502 1501 1500 1499 1498 1498 1497 1496 1494 1493 1492 1490 1488 1487 1485 1483 1482 1481 1481 1480 1480 1480 1479 1479 1479 1479 1479 1479 1478 1478 1478 1476 1476 1476 1476 1475 1475 1475 1476 1476 1476 1476 1477 1477 1477 1478 1478 1479 1478 1478 1478 1480 1482 1482 1482 1482 1484 1485 1485
1469 1470 1472 1473 1475 1477 1479 1481 1483 1486 1488 1490 1492 1493 1495 1497 1498 1499 1500 1501 1501 1501 1501 1501 1501 1500 1500 1498 1498 1497 1496 1495 1494 1493 1492 1490 1488 1486 1484 1482 1481 1479 1478 1476 1476 1475 1475 1475 1474 1474 1474 1474 1474 1473 1473 1473 1473 1473 1472 1472 1472 1472 1471 1471 1471 1472 1472 1471 1472 1473 1473 1473 1475 1476 1475 1475 1475 1476 1478 1479 1479 1479 1480 1481 1481
1468 1467 1466 1468 1472 1476 1481 1483 1484 1486 1487 1489 1490 1491 1493 1495 1496 1497 1498 1498 1499 1499 1499 1499 1498 1497 1497 1496 1495 1495 1494 1493 1491 1490 1489 1487 1485 1483 1480 1479 1477 1475 1474 1472 1471 1470 1470 1470 1469 1469 1469 1468 1468 1468 1467 1467 1467 1467 1467 1467 1467 1468 1467 1467 1466 1467 1468 1467 1467 1468 1468 1468 1470 1472 1473 1473 1473 1473 1474 1475 1475 1475 1476 1476 1477
1467 1467 1467 1468 1470 1473 1478 1482 1483 1485 1487 1488 1488 1489 1491 1492 1494 1495 1496 1496 1496 1496 1496 1496 1495 1495 1494 1493 1493 1492 1491 1490 1488 1487 1485 1483 1481 1479 1477 1475 1473 1471 1470 1468 1467 1466 1465 1465 1464 1464 1463 1463 1463 1463 1462 1462 1462 1461 1461 1461 1461 1462 1462 1462 1462 1462 1463 1463 1462 1462 1463 1464 1465 1467 1469 1470 1471 1471 1471 1472 1472 1472 1472 1473 1473
1463 1465 1468 1470 1470 1472 1475 1477 1479 1482 1484 1486 1487 1488 1488 1490 1491 1493 1494 1494 1494 1494 1493 1493 1492 1492 1491 1491 1490 1489 1488 1486 1484 1482 1480 1478 1477 1475 1473 1471 1469 1468 1466 1465 1463 1462 1461 1460 1459 1458 1458 1458 1458 1457 1457 1456 1456 1456 1455 1455 1454 1455 1455 1456 1457 1458 1458 1458 1457 1456 1458 1460 1460 1462 1465 1467 1468 1469 1469 1468 1469 1469 1469 1469 1470
1458 1460 1463 1466 1468 1470 1472 1473 1474 1477 1480 1484 1485 1486 1486 1487 1489 1490 1491 1492 1492 1491 1490 1490 1490 1489 1489 1489 1488 1486 1484 1482 1480 1478 1476 1474 1472 1470 1469 1467 1465 1463 1462 1460 1459 1458 1456 1455 1453 1452 1452 1452 1452 1452 1451 1451 1450 1450 1449 1449 1448 1448 1449 1449 1451 1452 1453 1453 1452 1451 1453 1456 1455 1456 1460 1463 1463 1464 1465 1465 1466 1465 1465 1465 1467
1454 1455 1458 1461 1464 1467 1469 1470 1471 1473 1476 1481 1483 1484 1484 1485 1486 1488 1489 1490 1489 1489 1488 1487 1487 1487 1487 1486 1484 1482 1481 1479 1476 1474 1471 1469 1468 1466 1464 1462 1460 1458 1457 1455 1454 1453 1452 1450 1449 1447 1447 1446 1447 1447 1446 1446 1445 1444 1443 1442 1442 1442 1442 1443 1444 1446 1446 1447 1447 1447 1448 1450 1451 1452 1455 1457 1458 1459 1461 1462 1463 1463 1462 1463 1464
1450 1451 1453 1456 1460 1464 1468 1471 1473 1473 1475 1479 1481 1482 1482 1482 1484 1486 1487 1487 1487 1486 1485 1485 1485 1484 1483 1482 1481 1479 1477 1476 1473 1470 1468 1466 1464 1461 1459 1457 1455 1453 1451 1450 1449 1447 1446 1445 1443 1442 1441 1441 1441 1441 1442 1441 1440 1438 1437 1435 1435 1435 1435 1436 1439 1439 1439 1440 1441 1441 1442 1443 1445 1446 1449 1451 1453 1455 1457 1458 1458 1459 1459 1460 1460
1445 1447 1449 1452 1456 1460 1465 1469 1473 1475 1476 1478 1480 1481 1481 1481 1482 1483 1484 1484 1484 1484 1483 1482 1482 1481 1480 1479 1478 1476 1473 1471 1469 1466 1464 1462 1460 1457 1454 1452 1449 1447 1445 1444 1443 1441 1440 1440 1439 1437 1436 1435 1435 1435 1436 1436 1434 1433 1431 1429 1429 1427 1427 1430 1433 1432 1432 1433 1434 1435 1436 1437 1439 1441 1443 1445 1448 1451 1452 1451 1451 1453 1455 1455 1455
1440 1442 1444 1448 1451 1455 1459 1465 1470 1473 1475 1477 1479 1480 1480 1481 1481 1481 1481 1481 1481 1481 1480 1480 1479 1478 1478 1477 1474 1472 1469 1467 1465 1463 1460 1458 1456 1452 1449 1446 1444 1441 1439 1438 1437 1435 1434 1434 1433 1432 1430 1429 1430 1430 1430 1430 1428 1427 1425 1424 1422 1420 1421 1425 1426 1425 1426 1427 1426 1428 1430 1431 1433 1435 1437 1439 1442 1445 1445 1444 1446 1448 1449 1449 1451
1437 1438 1441 1444 1447 1450 1455 1461 1466 1470 1472 1475 1477 1478 1479 1479 1479 1478 1478 1478 1478 1478 1478 1477 1477 1476 1475 1473 1471 1468 1465 1463 1461 1459 1456 1454 1451 1448 1445 1442 1438 1436 1434 1432 1430 1429 1428 1427 1427 1426 1424 1424 1424 1424 1424 1424 1422 1420 1420 1419 1415 1413 1416 1420 1420 1419 1421 1421 1420 1421 1423 1425 1428 1429 1431 1433 1436 1438 1439 1440 1441 1442 1443 1444 1447
1433 1435 1437 1441 1444 1447 1452 1458 1464 1467 1470 1473 1475 1476 1476 1476 1476 1475 1475 1476 1475 1475 1475 1475 1474 1474 1472 1470 1467 1465 1462 1459 1457 1455 1452 1449 1447 1444 1441 1437 1433 1430 1428 1426 1423 1422 1421 1420 1419 1419 1418 1418 1418 1417 1417 1417 1416 1414 1414 1412 1409 1408 1412 1414 1413 1414 1416 1415 1414 1415 1416 1418 1421 1422 1424 1427 1429 1432 1433 1435 1436 1437 1437 1439 1442
1429 1430 1434 1440 1444 1448 1452 1457 1462 1465 1468 1471 1473 1474 1474 1473 1473 1473 1473 1473 1473 1473 1473 1473 1472 1471 1469 1466 1463 1461 1459 1456 1453 1451 1448 1444 1442 1439 1436 1432 1429 1425 1422 1419 1417 1415 1414 1413 1412 1411 1411 1411 1411 1410 1409 1409 1409 1407 1406 1404 1404 1405 1408 1408 1407 1409 1410 1409 1409 1409 1409 1411 1413 1415 1418 1420 1423 1426 1428 1429 1430 1431 1432 1434 1436
1426 1429 1434 1440 1446 1451 1455 1458 1461 1462 1465 1468 1471 1471 1471 1470 1470 1470 1471 1471 1471 1471 1471 1471 1469 1467 1465 1463 1460 1458 1456 1453 1449 1446 1442 1439 1436 1434 1430 1427 1424 1421 1416 1413 1411 1409 1407 1406 1405 1404 1404 1403 1403 1402 1401 1401 1401 1399 1398 1398 1399 1401 1402 1402 1401 1403 1403 1403 1403 1403 1403 1404 1405 1408 1411 1414 1416 1420 1422 1423 1425 1426 1427 1429 1431
1426 1431 1438 1443 1449 1455 1458 1459 1460 1461 1463 1466 1468 1468 1468 1468 1468 1469 1469 1469 1469 1470 1469 1468 1466 1463 1461 1460 1458 1455 1452 1449 1445 1441 1437 1434 1431 1428 1425 1422 1420 1417 1412 1407 1405 1403 1401 1399 1398 1397 1397 1396 1395 1394 1393 1393 1393 1391 1390 1391 1392 1394 1395 1395 1395 1395 1396 1396 1397 1396 1396 1397 1398 1400 1404 1407 1411 1414 1416 1417 1420 1421 1423 1425 1427
1428 1434 1442 1447 1452 1455 1457 1457 1458 1459 1462 1464 1466 1466 1466 1467 1467 1467 1467 1468 1468 1468 1467 1465 1463 1460 1458 1456 1454 1451 1448 1444 1440 1436 1432 1428 1425 1422 1419 1416 1414 1411 1407 1403 1399 1397 1394 1392 1391 1390 1389 1388 1387 1386 1385 1385 1384 1383 1383 1384 1385 1387 1388 1387 1387 1389 1389 1389 1389 1389 1389 1391 1392 1394 1397 1402 1406 1409 1411 1412 1415 1417 1419 1421 1423
1431 1438 1445 1449 1452 1454 1455 1455 1457 1459 1462 1464 1464 1465 1465 1465 1466 1466 1466 1466 1466 1465 1464 1462 1460 1458 1455 1453 1450 1446 1443 1438 1434 1431 1427 1423 1419 1416 1414 1411 1408 1405 1402 1397 1394 1391 1388 1386 1385 1383 1382 1381 1380 1378 1377 1376 1376 1376 1376 1377 1378 1378 1379 1379 1380 1382 1382 1382 1382 1383 1383 1385 1387 1389 1392 1397 1400 1403 1405 1407 1409 1411 1414 1416 1418
1435 1442 1446 1449 1450 1452 1453 1455 1457 1460 1462 1463 1463 1464 1464 1464 1465 1465 1465 1465 1464 1462 1461 1459 1457 1455 1452 1449 1446 1442 1438 1434 1430 1426 1422 1418 1415 1411 1408 1405 1402 1399 1395 1391 1388 1385 1382 1380 1378 1376 1374 1373 1372 1370 1369 1368 1369 1369 1369 1369 1369 1369 1370 1372 1373 1374 1374 1375 1376 1377 1378 1381 1383 1385 1388 1391 1394 1397 1400 1403 1404 1406 1408 1410 1413
1440 1444 1446 1447 1449 1451 1453 1455 1457 1459 1461 1462 1462 1463 1464 1464 1464 1464 1463 1462 1461 1459 1458 1456 1454 1451 1449 1446 1443 1438 1434 1430 1426 1422 1418 1414 1410 1406 1403 1399 1396 1392 1389 1385 1381 1378 1376 1373 1371 1369 1367 1366 1365 1363 1362 1361 1361 1361 1361 1361 1361 1361 1362 1364 1366 1367 1368 1370 1371 1372 1374 1377 1380 1381 1384 1386 1389 1392 1396 1398 1400 1401 1403 1406 1408
1441 1443 1445 1447 1448 1450 1452 1455 1457 1459 1460 1461 1463 1463 1463 1463 1463 1462 1461 1460 1458 1457 1455 1453 1451 1449 1446 1443 1440 1436 1432 1428 1423 1418 1414 1410 1406 1401 1398 1394 1390 1386 1383 1379 1376 1372 1370 1367 1365 1363 1361 1360 1358 1357 1356 1355 1354 1354 1353 1354 1354 1355 1356 1358 1360 1361 1363 1365 1367 1368 1371 1373 1375 1377 1379 1381 1384 1388 1392 1393 1395 1397 1399 1401 1403
1440 1442 1445 1446 1448 1449 1452 1454 1457 1459 1461 1462 1463 1463 1463 1462 1461 1460 1459 1457 1455 1453 1452 1450 1448 1447 1444 1441 1438 1433 1429 1424 1420 1416 1411 1407 1403 1398 1393 1389 1385 1381 1378 1375 1371 1367 1365 1362 1360 1358 1356 1354 1352 1351 1349 1348 1347 1347 1347 1348 1348 1349 1351 1352 1353 1355 1358 1360 1362 1364 1366 1369 1371 1373 1375 1377 1380 1384 1387 1389 1391 1393 1395 1398 1399
1440 1442 1444 1445 1447 1449 1452 1455 1457 1459 1461 1462 1462 1462 1461 1461 1459 1458 1456 1454 1453 1451 1450 1448 1447 1445 1443 1440 1437 1433 1428 1422 1417 1412 1408 1404 1400 1395 1390 1386 1381 1377 1374 1371 1367 1364 1361 1358 1356 1354 1352 1350 1347 1345 1344 1343 1342 1341 1341 1342 1343 1344 1345 1346 1347 1350 1352 1355 1357 1359 1362 1365 1367 1368 1371 1373 1376 1380 1383 1385 1387 1389 1392 1394 1396
1439 1442 1444 1445 1448 1450 1453 1456 1458 1459 1460 1460 1460 1460 1460 1459 1457 1455 1454 1452 1451 1450 1449 1447 1446 1443 1440 1438 1435 1432 1427 1421 1415 1410 1405 1400 1396 1391 1386 1382 1378 1374 1371 1367 1364 1361 1358 1355 1352 1350 1348 1346 1343 1341 1340 1338 1337 1336 1336 1337 1338 1339 1340 1341 1343 1345 1348 1350 1353 1356 1359 1361 1363 1364 1367 1370 1373 1376 1379 1381 1384 1386 1388 1390 1392
1439 1442 1445 1447 1449 1452 1455 1457 1458 1459 1459 1459 1459 1459 1458 1457 1455 1454 1453 1451 1450 1449 1448 1446 1444 1442 1439 1436 1433 1429 1424 1419 1413 1408 1402 1397 1392 1387 1383 1378 1375 1371 1368 1365 1361 1358 1356 1353 1349 1347 1345 1342 1340 1338 1336 1335 1334 1333 1333 1333 1333 1334 1335 1336 1338 1341 1344 1347 1350 1352 1355 1357 1359 1361 1364 1367 1370 1372 1375 1377 1380 1382 1385 1387 1390
1440 1443 1446 1448 1451 1453 1455 1456 1457 1457 1457 1457 1457 1457 1456 1455 1454 1453 1452 1450 1449 1448 1447 1445 1443 1440 1438 1435 1431 1427 1422 1417 1411 1405 1400 1395 1389 1384 1380 1376 1372 1369 1366 1363 1359 1356 1353 1350 1347 1344 1342 1340 1337 1335 1334 1333 1332 1331 1331 1330 1330 1331 1332 1334 1336 1339 1341 1344 1346 1349 1351 1354 1356 1358 1361 1364 1366 1369 1371 1374 1377 1379 1382 1385 1388
1442 1445 1447 1449 1451 1453 1455 1456 1456 1456 1455 1455 1455 1455 1455 1454 1453 1452 1451 1450 1449 1448 1446 1445 1442 1439 1436 1433 1430 1426 1421 1415 1409 1403 1398 1393 1387 1382 1378 1374 1370 1367 1364 1361 1358 1355 1351 1348 1345 1342 1340 1337 1335 1333 1332 1331 1330 1330 1329 1329 1329 1330 1331 1332 1334 1336 1338 1341 1344 1346 1349 1351 1353 1355 1358 1361 1363 1366 1368 1371 1373 1376 1380 1383 1386
1444 1446 1448 1450 1451 1452 1454 1455 1454 1454 1454 1454 1454 1454 1454 1453 1453 1452 1451 1450 1448 1447 1445 1444 1441 1438 1435 1431 1428 1424 1419 1414 1408 1402 1396 1391 1385 1380 1375 1371 1367 1364 1362 1359 1356 1353 1350 1347 1344 1341 1338 1336 1334 1332 1330 1329 1328 1328 1327 1327 1327 1328 1329 1329 1331 1332 1335 1338 1340 1343 1346 1348 1350 1353 1356 1358 1360 1363 1365 1368 1371 1374 1377 1381 1384
1445 1447 1449 1450 1451 1452 1453 1453 1453 1453 1453 1454 1454 1454 1454 1453 1452 1451 1450 1449 1447 1446 1444 1442 1440 1437 1434 1430 1426 1422 1417 1412 1406 1400 1394 1389 1384 1379 1374 1370 1367 1364 1361 1358 1355 1352 1349 1346 1343 1340 1338 1335 1333 1331 1329 1328 1327 1326 1326 1326 1325 1325 1326 1326 1327 1329 1331 1334 1337 1341 1343 1346 1348 1351 1354 1357 1359 1362 1364 1367 1371 1374 1376 1379 1382
1446 1448 1449 1450 1451 1451 1452 1452 1452 1452 1453 1454 1454 1454 1453 1453 1452 1451 1450 1448 1446 1445 1443 1440 1438 1435 1432 1428 1424 1420 1416 1411 1405 1399 1393 1388 1383 1378 1374 1371 1368 1364 1361 1357 1354 1351 1348 1346 1343 1340 1337 1334 1332 1330 1329 1327 1326 1325 1325 1324 1324 1323 1323 1324 1325 1326 1329 1332 1335 1338 1341 1344 1346 1350 1353 1356 1359 1362 1365 1367 1370 1373 1377 1379 1383
1447 1448 1449 1450 1451 1451 1451 1451 1452 1452 1453 1453 1453 1453 1453 1452 1451 1450 1449 1447 1445 1443 1441 1439 1436 1433 1429 1426 1422 1418 1415 1410 1404 1397 1392 1387 1382 1378 1375 1372 1368 1365 1361 1358 1355 1351 1348 1345 1342 1340 1337 1334 1332 1330 1328 1327 1326 1325 1324 1324 1323 1323 1323 1323 1325 1326 1328 1331 1335 1338 1340 1343 1346 1349 1353 1355 1358 1361 1365 1368 1370 1373 1377 1381 1384
1447 1448 1449 1450 1450 1450 1450 1451 1451 1452 1452 1453 1453 1452 1452 1451 1450 1449 1448 1446 1444 1442 1440 1437 1435 1432 1428 1425 1421 1417 1413 1408 1402 1396 1391 1387 1383 1379 1376 1372 1369 1365 1362 1359 1355 1352 1349 1346 1343 1340 1338 1335 1333 1331 1329 1327 1326 1325 1325 1324 1324 1324 1324 1324 1326 1327 1329 1332 1335 1338 1341 1344 1347 1350 1352 1355 1357 1360 1364 1367 1370 1373 1376 1381 1384
1447 1448 1449 1449 1450 1450 1450 1450 1451 1452 1452 1452 1452 1451 1450 1450 1449 1448 1447 1445 1444 1442 1439 1436 1434 1431 1428 1425 1421 1417 1413 1409 1403 1398 1393 1388 1384 1380 1377 1373 1370 1366 1363 1360 1357 1354 1350 1347 1344 1342 1339 1336 1334 1332 1330 1329 1327 1326 1326 1326 1325 1325 1326 1326 1327 1329 1330 1333 1336 1339 1341 1344 1347 1350 1353 1356 1358 1361 1364 1367 1371 1374 1377 1380 1385
1447 1448 1448 1449 1450 1450 1450 1451 1451 1452 1452 1451 1451 1450 1449 1449 1448 1447 1446 1444 1443 1441 1439 1436 1433 1431 1429 1426 1422 1419 1415 1411 1406 1401 1396 1391 1387 1383 1379 1375 1372 1369 1365 1362 1359 1356 1353 1350 1347 1344 1341 1338 1336 1334 1332 1330 1329 1328 1327 1327 1327 1327 1328 1329 1330 1331 1332 1334 1337 1340 1343 1346 1348 1351 1354 1357 1360 1363 1366 1368 1371 1375 1378 1382 1386
1447 1448 1448 1449 1450 1450 1451 1451 1451 1451 1450 1450 1449 1449 1449 1448 1447 1446 1445 1444 1442 1440 1438 1436 1434 1431 1429 1426 1423 1420 1417 1413 1408 1404 1398 1394 1389 1385 1381 1378 1375 1371 1368 1365 1362 1359 1356 1352 1349 1346 1343 1341 1338 1336 1334 1333 1331 1330 1329 1329 1329 1329 1330 1331 1332 1333 1335 1336 1339 1341 1344 1347 1350 1353 1356 1359 1362 1364 1366 1369 1373 1376 1380 1384 1388
1447 1447 1448 1449 1449 1450 1450 1451 1450 1450 1450 1449 1449 1448 1448 1447 1446 1446 1444 1443 1441 1439 1437 1436 1434 1431 1429 1427 1424 1421 1418 1414 1410 1406 1401 1397 1392 1388 1384 1381 1377 1374 1371 1368 1365 1362 1359 1355 1352 1349 1347 1344 1341 1339 1337 1336 1334 1333 1332 1332 1332 1332 1333 1334 1334 1336 1337 1339 1340 1343 1346 1349 1352 1354 1357 1360 1363 1366 1368 1371 1375 1379 1382 1386 1390
1447 1448 1448 1449 1450 1450 1450 1450 1450 1450 1449 1448 1448 1448 1447 1447 1446 1445 1444 1443 1441 1439 1437 1435 1433 1431 1429 1427 1424 1421 1418 1415 1411 1408 1404 1399 1395 1391 1387 1383 1380 1377 1374 1371 1368 1365 1362 1359 1356 1353 1350 1347 1345 1343 1341 1339 1338 1337 1336 1335 1334 1335 1336 1337 1337 1339 1340 1341 1342 1345 1348 1351 1354 1356 1359 1362 1366 1368 1371 1374 1378 1381 1385 1389 1392
1448 1449 1449 1450 1450 1451 1451 1450 1450 1449 1449 1448 1448 1447 1447 1447 1446 1445 1444 1442 1441 1439 1437 1435 1434 1431 1429 1427 1424 1422 1419 1416 1413 1410 1406 1402 1398 1394 1390 1386 1383 1380 1377 1374 1371 1368 1365 1362 1359 1356 1353 1351 1348 1346 1344 1343 1342 1340 1340 1339 1338 1338 1339 1340 1341 1342 1343 1344 1345 1347 1349 1352 1356 1358 1361 1365 1369 1372 1374 1377 1380 1383 1387 1391 1394
1449 1450 1450 1450 1451 1451 1451 1450 1450 1450 1449 1448 1448 1447 1447 1446 1446 1445 1444 1442 1441 1439 1437 1436 1434 1432 1429 1427 1425 1422 1420 1417 1414 1411 1408 1405 1401 1397 1393 1390 1386 1383 1380 1377 1374 1371 1368 1365 1363 1360 1357 1355 1353 1351 1349 1347 1346 1345 1344 1343 1343 1343 1343 1344 1345 1346 1347 1348 1349 1350 1352 1355 1359 1362 1365 1368 1372 1375 1377 1381 1384 1387 1390 1394 1397
1450 1450 1451 1451 1451 1451 1451 1450 1450 1450 1449 1448 1448 1447 1447 1446 1445 1444 1443 1442 1440 1439 1437 1435 1434 1432 1430 1428 1426 1423 1421 1418 1416 1413 1410 1407 1404 1401 1397 1394 1390 1387 1384 1381 1378 1375 1372 1369 1367 1364 1362 1359 1357 1355 1353 1352 1350 1350 1349 1348 1348 1348 1348 1349 1350 1350 1352 1353 1354 1355 1356 1359 1362 1365 1369 1372 1375 1378 1381 1385 1388 1391 1394 1397 1400
1450 1451 1451 1451 1451 1451 1451 1450 1450 1450 1449 1448 1448 1447 1446 1446 1445 1444 1443 1442 1440 1439 1437 1435 1434 1432 1430 1428 1426 1424 1422 1420 1417 1415 1412 1409 1407 1404 1401 1397 1394 1391 1388 1385 1382 1379 1376 1373 1371 1369 1366 1364 1362 1360 1359 1357 1356 1355 1354 1354 1354 1354 1354 1355 1355 1356 1357 1358 1359 1360 1362 1363 1366 1369 1373 1376 1379 1382 1385 1388 1391 1394 1398 1401 1404
1451 1451 1451 1451 1451 1451 1450 1450 1450 1449 1449 1448 1447 1447 1446 1446 1445 1444 1443 1442 1440 1439 1437 1435 1433 1432 1430 1429 1427 1425 1423 1421 1419 1416 1414 1411 1409 1407 1404 1401 1398 1395 1392 1389 1386 1383 1380 1378 1375 1373 1371 1369 1368 1366 1364 1363 1362 1361 1360 1360 1360 1360 1360 1360 1361 1362 1363 1364 1364 1366 1367 1368 1371 1374 1378 1381 1384 1387 1389 1392 1395 1398 1401 1404 1407
1451 1452 1452 1451 1451 1451 1450 1450 1450 1449 1448 1448 1447 1446 1446 1445 1445 1444 1443 1442 1440 1439 1437 1435 1434 1432 1431 1429 1427 1426 1424 1422 1420 1418 1416 1413 1411 1409 1407 1404 1402 1399 1396 1393 1391 1388 1385 1383 1380 1378 1376 1374 1373 1371 1370 1369 1368 1367 1366 1366 1366 1366 1366 1366 1366 1367 1368 1369 1370 1371 1373 1374 1377 1379 1383 1387 1390 1392 1394 1397 1400 1402 1405 1407 1410
1452 1452 1452 1452 1452 1452 1451 1451 1450 1449 1448 1448 1447 1446 1446 1445 1444 1444 1443 1442 1440 1439 1437 1435 1434 1432 1431 1430 1428 1427 1425 1423 1422 1420 1418 1415 1413 1411 1410 1408 1405 1403 1401 1398 1396 1393 1390 1388 1385 1383 1381 1379 1377 1376 1375 1374 1373 1373 1372 1372 1372 1372 1372 1372 1372 1373 1374 1375 1376 1378 1379 1380 1382 1385 1388 1392 1395 1397 1399 1402 1404 1406 1408 1411 1413